Flag for U.S.A. Weather past 2 weeks in Pueblo, Colorado, U.S.A.

21 °F

Ice fog.

Feels Like: 15 °F
Forecast: 13 / 36 °F
Wind: 5 mph from West

Location: Pueblo Memorial Airport

Current Time: Nov 30, 2015 at 9:21:06 AM

Latest Report: Nov 30, 2015 at 8:53 AM

Visibility: 0 mi

Pressure: 30.08 "Hg (25.05 "Hg at 1430m altitude)

Humidity: 92%

Dew point: 19 °F

Location of PuebloLocation

Historic Weather in Pueblo — Graph


Pueblo temperature yesterday

Maximum temperature yesterday: 28 °F (at 11:53 AM)
Minimum temperature yesterday: 23 °F (at 12:53 AM)
Average temperature yesterday: 26 °F

Past Weeks' High & Low Weather Summary

High70 °F (Nov 22, 1:53 PM)92% (Nov 29, 2:02 AM)30.61 "Hg (Nov 29, 2:02 AM)
Low6 °F (Nov 27, 6:53 AM)7% (Nov 22, 1:53 PM)29.25 "Hg (Nov 16, 12:53 PM)
Average36 °F54%29.98 "Hg
* Reported Nov 15 7:53 AM — Nov 30 7:53 AM, Pueblo, Weather by CustomWeather, © 2015

Note: Actual official high and low records may vary slightly from our data, if they occured in-between our weather recording intervals... More about our weather records


Pueblo weather history for previous 24 hours

Time TempWeatherWind HumidityBarometerVisibility
7:53 AM
Mon, Nov 30
19 °FIce fog.8 mph88%30.07 "Hg0 mi
6:53 AM15 °FIce fog.6 mph87%30.09 "Hg5 mi
5:53 AM16 °FClear.6 mph84%30.07 "Hg10 mi
4:53 AM15 °FPassing clouds.3 mph83%30.06 "Hg10 mi
4:03 AM23 °FIce fog.5 mph88%29.94 "Hg5 mi
3:53 AM23 °FLight snow. Ice fog.3 mph88%30.03 "Hg4 mi
2:59 AM26 °FLight snow. Ice fog.No wind84%29.94 "Hg1 mi
2:00 AM26 °FLight snow. Mostly cloudy.No wind81%29.95 "Hg4 mi
12:53 AM26 °FIce fog.No wind84%30.04 "Hg5 mi
11:53 PM
Sun, Nov 29
26 °FIce fog.No wind84%30.06 "Hg5 mi
10:53 PM26 °FIce fog.No wind84%30.08 "Hg5 mi
9:53 PM26 °FOvercast.No wind84%30.08 "Hg7 mi
8:53 PM26 °FIce fog.3 mph84%30.11 "Hg6 mi
7:53 PM26 °FMostly cloudy.3 mph84%30.12 "Hg8 mi
6:53 PM27 °FOvercast.No wind81%30.13 "Hg10 mi
5:53 PM27 °FOvercast.3 mph81%30.12 "Hg8 mi
4:53 PM27 °FOvercast.3 mph78%30.12 "Hg8 mi
2:53 PM28 °FOvercast.3 mph69%30.10 "Hg10 mi
1:53 PM27 °FOvercast.No wind72%30.11 "Hg10 mi
12:53 PM28 °FOvercast.No wind72%30.14 "Hg10 mi
11:53 AM28 °FOvercast.No wind72%30.17 "Hg10 mi
10:53 AM27 °FOvercast.No wind75%30.19 "Hg9 mi
9:53 AM27 °FMore clouds than sun.No wind75%30.21 "Hg5 mi
Weather by CustomWeather, © 2015

See weather overviewHow to use our weather pages